Погода в Углегорске

Россия / Сахалинская область     49°04′53″N   142°04′09″E
темп.,
°C
ветер,
м/с
пор.,
м/с
влажн.,
%
обл.,
%
осадки,
мм/ч
давл.,
гПа
погр.,
м
7 марта, вс
вс723:00−12сз81072100 0.3 10221280
02:00−12сз7870100 0.2 10221153
05:00−12зсз6768100 0.2 1021915
08:00−11з6771100 0.0 1022860
11:00−10з6769100 0.1 10211065
14:00−9з456373 0.0 1019986
17:00−8з565770 0.0 10181169
20:00−9зсз3560100 0.0 1018800
8 марта, пн
пн823:00−11зсз146995 0.0 1019502
02:00−10ссз3571100 0.1 1018576
05:00−11ссз2568100 0.1 1019726
08:00−13всв2280100 0.0 1019198
11:00−9в117767 0.0 1019309
14:00−7з23690 0.0 1019623
17:00−6зюз35620 0.0 1018767
20:00−6ююз57660 0.0 1018499
9 марта, вт
вт923:00−5ююз48730 0.0 1019723
02:00−5з586528 0.0 1017669
05:00−4зюз476118 0.0 1015615
08:00−4юз477043 0.0 1014540
11:00−1ююз697171 0.1 1012590
14:000ююз81370100 0.2 1009810
17:000юз61276100 0.5 1007663
20:00−1ю51188100 0.3 1006517
10 марта, ср
ср1023:00−1ююв2498100 1.6 1006200
02:00−2всв3397100 4.2 1005140
05:00−2с81097100 6.8 1006466
08:00−4с121593100 3.7 1009669
11:00−5с131678100 4.4 1013803
14:00−5с12157544 0.0 1015811
17:00−4с10136822 0.0 1018938
20:00−6с48670 0.0 1020419
11 марта, чт
чт1123:00−8в227212 0.0 102289
02:00−7юв33710 0.0 1021106
05:00−6ююв357522 0.0 1020371
08:00−5юз377397 0.0 1019636
11:00−3юз468098 0.6 1017617
14:00−1з8967100 0.3 10161227
17:00−2ссз6872100 0.3 10151076
20:00−4с588089 0.0 1018584